This demonstration page uses our WeatherBlox Daily Observations layout. Learn more.

Left ArrowRight Arrow

34.74481, -87.66753

Hourly Observations for December 18, 2020

Temp ( °F °C ) Dew Point ( °F °C ) Humidity (%) Winds ( mph kmh ) Pressure ( in mb ) Visibility ( mi km ) Precip ( " mm )
12:53 am 00:53 Clear 28 -2.2 22 -5.6 78 78 Calm 30.32 1027 8 13 0.00 0.00
1:53 am 01:53 Clear 28 -2.2 22 -5.6 78 78 Calm 30.36 1028 9 14 0.00 0.00
2:53 am 02:53 Clear 27 -2.8 21 -6.1 78 78 SE 3 6 30.37 1028 8 13 0.00 0.00
3:53 am 03:53 Clear 27 -2.8 20 -6.7 75 75 Calm 30.37 1029 8 13 0.00 0.00
4:53 am 04:53 Clear 26 -3.3 20 -6.7 78 78 Calm 30.39 1029 7 11 0.00 0.00
5:53 am 05:53 Clear 25 -3.9 20 -6.7 81 81 E 5 7 30.39 1029 7 11 0.00 0.00
6:53 am 06:53 Sunny with Mist and Fog 25 -3.9 21 -6.1 85 85 Calm 30.41 1030 6 10 0.00 0.00
7:53 am 07:53 Hazy 29 -1.7 22 -5.6 75 75 Calm 30.42 1030 6 10 0.00 0.00
8:53 am 08:53 Sunny 34 1.1 27 -2.8 76 76 Calm 30.45 1031 9 14 0.00 0.00
9:53 am 09:53 Sunny 39 3.9 28 -2.2 65 65 SE 5 7 30.46 1032 9 14 0.00 0.00
10:53 am 10:53 undefined 42 5.6 27 -2.8 55 55 SE 3 6 30.45 1031 10 16 0.00 0.00
11:53 am 11:53 Sunny 45 7.2 27 -2.8 49 49 S 5 7 30.42 1030 10 16 0.00 0.00
12:53 pm 12:53 Sunny 47 8.3 26 -3.3 44 44 Calm 30.39 1029 10 16 0.00 0.00
1:53 pm 13:53 Sunny 50 10 28 -2.2 43 43 SSE 3 6 30.38 1029 10 16 0.00 0.00
2:53 pm 14:53 Sunny 50 10 27 -2.8 41 41 Calm 30.37 1028 10 16 0.00 0.00
3:53 pm 15:53 Sunny 50 10 30 -1.1 46 46 ESE 3 6 30.36 1028 10 16 0.00 0.00
4:53 pm 16:53 Clear 43 6.1 28 -2.2 56 56 E 6 9 30.34 1027 10 16 0.00 0.00
5:53 pm 17:53 Clear 43 6.1 28 -2.2 56 56 ENE 5 7 30.35 1028 10 16 0.00 0.00
6:53 pm 18:53 Clear 38 3.3 27 -2.8 65 65 E 5 7 30.35 1028 10 16 0.00 0.00
7:53 pm 19:53 Clear 38 3.3 27 -2.8 65 65 Calm 30.35 1028 10 16 0.00 0.00
8:53 pm 20:53 Clear 35 1.7 27 -2.8 72 72 Calm 30.35 1028 9 14 0.00 0.00
9:53 pm 21:53 Clear 33 0.6 26 -3.3 75 75 SE 6 9 30.35 1028 8 13 0.00 0.00
10:53 pm 22:53 Clear 33 0.6 26 -3.3 75 75 Calm 30.35 1028 8 13 0.00 0.00
11:53 pm 23:53 Clear 31 -0.6 25 -3.9 79 79 ESE 3 6 30.34 1028 9 14 0.00 0.00

Powered by AerisWeather